Regional Weather Roundup
Issued by NWS

Home | Current Version | Previous Version | Graphics & Text | Print | Product List | Glossary On
Versions: 1 2 3 4 5 6 7 8 9 10 11 12 13 14 15 16 17 18 19 20 21 22 23 24 25 26 27 28 29 30 31 32 33 34 35 36 37 38 39 40 41 42 43 44 45 46 47 48 49 50
000
ASUS43 KLSX 260907
RWRMO

WEATHER SUMMARY FOR MISSOURI
NATIONAL WEATHER SERVICE SPRINGFIELD MO
400 AM CDT FRI MAY 26 2017

NOTE: "FAIR" INDICATES FEW OR NO CLOUDS BELOW 12,000 FEET WITH NO
       SIGNIFICANT WEATHER AND/OR OBSTRUCTIONS TO VISIBILITY.
       CURRENT SKY AND/OR WEATHER CONDITIONS ARE NOT AVAILABLE FOR
       CHILLICOTHE AND FARMINGTON.

MOZ001>031-035>038-043-044-053-054-261000-
...NORTHERN AND WESTERN MISSOURI...

CITY           SKY/WX    TMP DP  RH WIND       PRES   REMARKS
KANSAS CTY INT LGT RAIN  65  60  84 SE22G29   29.55F
KANSAS C DTWN  LGT RAIN  66  60  81 SE23      29.56F
LEE`S SUMMIT   RAIN      65  59  81 S7        29.71R
ST JOSEPH      CLOUDY    67  59  75 VRB3      29.52F
CHILLICOTHE      N/A     62  56  80 S5        29.70R
KIRKSVILLE     PTCLDY    59  54  83 S5        29.72S

$$
MOZ066>068-077>081-088>096-101>105-261000-
...SOUTHWEST MISSOURI...

CITY           SKY/WX    TMP DP  RH WIND       PRES   REMARKS
SPRINGFIELD    MOCLDY    68  58  70 SE16      29.70F
JOPLIN         CLOUDY    68  61  78 NE9       29.67R
BRANSON        CLOUDY    63  57  82 E10       29.72S

$$
MOZ032>034-039>042-045>050-055>058-069>072-261000-
...CENTRAL MISSOURI...

CITY           SKY/WX    TMP DP  RH WIND       PRES   REMARKS
COLUMBIA       PTCLDY    61  55  81 SE9       29.73S
JEFFERSON CITY CLEAR     65  54  67 E7        29.73S
ROLLA          PTCLDY    61  56  83 SE9       29.75F
SEDALIA        PTCLDY    63  59  87 S7        29.72R
WHITEMAN AFB   CLOUDY    64  64  98 S7        29.70R
WARRENSBURG    CLOUDY    63  55  77 S3        29.70R
OSAGE BEACH    PTCLDY    63  56  78 SE7       29.74F

$$
MOZ051-052-059>065-261000-
...EAST CENTRAL MISSOURI...

CITY           SKY/WX    TMP DP  RH WIND       PRES   REMARKS
ST LOUIS INTL  PTCLDY    63  53  70 E6        29.78S
SPIRIT OF STL  PTCLDY    64  55  72 CALM      29.76S
ST CHARLES     PTCLDY    59  56  89 E9        29.77S

$$
MOZ072>076-082>087-097>100-106>115-261000-
...SOUTH CENTRAL AND SOUTHEAST MISSOURI...

CITY           SKY/WX    TMP DP  RH WIND       PRES   REMARKS
CAPE GIRARDEAU CLEAR     59  53  80 S3        29.83S
FARMINGTON     CLEAR     59  55  87 S6        29.82S
POPLAR BLUFF   CLOUDY    60  58  92 CALM      29.82S
WEST PLAINS    PTCLDY    62  57  83 VRB5      29.81R

$$



USA.gov is the U.S. government's official web portal to all federal, state and local government web resources and services.